Hourly Data Report for June 14, 2021

TOBERMORY RCS
ONTARIO
Current Station Operator: ECCC - MSC

45°14'00.000" N
81°38'00.000" W
213.50 m
6128330
71767
TTR

Download Data

Hourly Data (June 2021)
Hourly Data Report for June 14, 2021
TIME
LST
Temp Definition
°C
Dew Point Definition
°C
Rel Hum Definition
%
Precip. Amount Definition
mm

Wind Dir Definition
10's deg

Wind Spd Definition
km/h
Visibility Definition
km
Stn Press Definition
kPa
Hmdx Definition


Wind Chill Definition


Weather Definition


00:00 15.9 11.0 73 0.0 31 12   98.43     LegendNANA
01:00 15.7 11.6 77 0.0 30 10   98.42     LegendNANA
02:00 13.6 11.0 84 0.2 29 22   98.41     LegendNANA
03:00 14.5 11.3 81 0.0 30 10   98.39     LegendNANA
04:00 13.4 11.4 87 0.0 30 14   98.40     LegendNANA
05:00 12.7 11.7 93 0.0 29 13   98.42     LegendNANA
06:00 12.9 12.0 94 0.0 29 15   98.44     LegendNANA
07:00 13.8 12.4 91 0.0 31 11   98.47     LegendNANA
08:00 15.5 12.6 83 0.0 32 9   98.47     LegendNANA
09:00 17.4 12.9 75 0.0 35 15   98.46     LegendNANA
10:00 17.9 12.3 70 0.0 36 13   98.47     LegendNANA
11:00 19.6 13.6 68 0.0 1 9   98.49     LegendNANA
12:00 18.6 12.1 66 0.0 36 10   98.54     LegendNANA
13:00 19.2 14.0 72 0.0 34 9   98.50     LegendNANA
14:00 19.4 12.5 64 0.0 29 14   98.51     LegendNANA
15:00 21.0 13.8 63 0.0 28 14   98.49     LegendNANA
16:00 18.1 12.6 70 0.0 30 17   98.52     LegendNANA
17:00 15.9 12.1 78 0.0 32 16   98.56     LegendNANA
18:00 16.0 13.7 86 0.3 30 11   98.51     LegendNANA
19:00 16.3 13.0 80 0.0 30 9   98.52     LegendNANA
20:00 15.2 12.5 84 0.0 30 6   98.57     LegendNANA
21:00 15.2 12.7 85 0.0 36 6   98.66     LegendNANA
22:00 15.6 12.8 83 0.0 36 6   98.69     LegendNANA
23:00 15.7 11.8 78 0.0 1 10   98.73     LegendNANA

Notes on Data Quality.

Legend

  • E = Estimated
  • M = Missing
  • NA = Not Available*
  • [empty] = Indicates an unobserved value
Date modified: